Location: *
(37.6924°S, 57.8700°E)
Time: 19:05:42
(UTC+00:00)

Daily predictions for brighter satellites

Satellite Brightness Start Highest point End
(mag) Time Altitude Azimuth Time Altitude Azimuth Time Altitude Azimuth
NOSS 3-1 (A) 3.3 14:02:44 10° SW 14:08:52 80° WNW 14:13:54 10° NNE
Meteor 1-31 Rocket 3.8 14:07:03 10° SE 14:10:09 24° E 14:13:14 10° NNE
USA 229 DEB 3.9 14:08:40 10° SSW 14:14:53 42° SE 14:20:35 10° ENE
Cosmos 614 Rocket 4.4 14:09:48 10° NNW 14:15:00 71° WSW 14:20:14 10° SSE
USA 229 3.9 14:08:49 10° SSW 14:15:01 42° SE 14:20:43 10° ENE
ATLAS 5 CENTAUR R/B 3.8 14:12:07 10° SW 14:16:47 32° WNW 14:20:39 10° N
Cosmos 1400 Rocket 2.9 14:13:53 10° N 14:17:53 85° W 14:21:55 10° S
Okean 2 3.4 14:16:10 10° N 14:20:05 58° E 14:24:06 10° SSE
SeaSat 1 2.8 14:15:21 10° SE 14:20:06 44° ENE 14:24:48 10° N
CZ-2C R/B 2.9 14:17:17 10° SSE 14:20:44 42° E 14:24:10 10° N
Meteor 1-16 Rocket 4.4 14:14:56 10° S 14:20:54 63° E 14:26:45 10° NNE
Cosmos 44 4.2 14:21:02 10° S 14:25:09 28° SE 14:29:26 10° ENE
BREEZE-M DEB (TANK) 2.6 14:25:14 10° NNW 14:27:14 25° NE 14:28:51 14° E
ISS -2.2 14:29:03 10° N 14:31:40 21° NE 14:33:13 16° E
Cosmos 1782 Rocket 4.4 14:30:51 10° SSE 14:34:40 28° ESE 14:38:26 10° NE
Cosmos 482 Debris 2.1 14:33:00 10° NW 14:34:46 84° NE 14:35:48 23° SE
Cosmos 1346 Rocket 3.0 14:32:09 10° S 14:35:58 44° ESE 14:39:43 10° NNE
SEDSat Delta rocket 4.1 14:33:57 10° NW 14:37:27 28° NNE 14:40:12 14° ENE
SMAP 3.3 14:33:50 10° S 14:38:35 78° WSW 14:43:15 10° NNW
Cosmos 1908 Rocket 3.5 14:37:12 10° S 14:41:38 71° E 14:45:59 10° NNE
Cosmos 1269 Rocket 4.3 14:36:30 10° NNW 14:41:47 74° WSW 14:47:09 10° SSE
Cosmos 1300 4.5 14:38:29 10° SSW 14:41:51 34° W 14:45:09 10° NNW
AQUARIUS 4.2 14:39:19 10° SSE 14:43:53 90° W 14:48:21 10° NNW
Cosmos 2285 Rocket 4.0 14:41:48 10° N 14:48:12 76° ENE 14:54:42 10° SSE
ATLAS 3B R/B 4.0 14:46:45 10° SW 14:52:30 39° WNW 14:58:21 10° N
Delta 2 Rocket 3.4 14:53:08 10° WNW 14:56:49 58° N 14:58:36 29° ENE
USA 307 4.4 14:55:21 10° NNE 14:55:39 11° NNE 14:55:39 11° NNE
Cosmos 1992 Rocket 4.3 14:53:15 10° SSW 14:58:29 70° WNW 15:03:39 10° N
IGS 5A 3.7 14:57:33 10° SSE 15:01:32 42° E 15:05:26 10° N
Cosmos 1300 Rocket 3.8 14:57:48 10° S 15:02:00 45° E 15:06:09 10° NNE
CZ-4B R/B 4.1 14:58:53 10° SSE 15:03:45 35° E 15:08:29 10° NNE
Cosmos 2242 Rocket 3.6 15:02:08 10° N 15:06:35 60° E 15:11:08 10° SSE
Cosmos 1140 Rocket 3.4 15:01:50 10° N 15:06:59 72° ENE 15:12:10 10° SSE
Cosmos 2098 Rocket 4.3 15:03:08 10° S 15:09:37 49° E 15:16:00 10° NNE
Cosmos 1174 2.9 15:07:17 10° NNW 15:10:27 73° ENE 15:10:44 66° ESE
Cosmos 1455 2.0 15:06:55 10° S 15:10:33 84° W 15:14:06 10° N
Cosmos 1953 2.9 15:07:24 10° SSW 15:11:17 56° W 15:15:05 10° N
Cosmos 1656 3.9 15:08:09 10° SSW 15:13:45 51° ESE 15:16:30 28° NE
Lacrosse 5 3.5 15:11:12 10° SSW 15:14:45 18° SSE 15:15:18 18° SE
Cosmos 407 Rocket 3.4 15:12:48 10° N 15:17:52 60° ENE 15:22:57 10° SSE
BREEZE-M DEB (TANK) 4.0 15:29:09 10° SSW 15:29:39 14° SSW 15:29:39 14° SSW
Meteor 1-4 Rocket 4.5 15:30:24 10° NNW 15:31:10 16° NNW 15:31:10 16° NNW
Cosmos 1833 Rocket 2.5 15:27:50 10° NNW 15:33:27 74° ENE 15:37:45 18° SSE
USA 215 3.2 15:40:25 45° ENE 15:42:35 72° SE 15:49:10 10° SW
NOAA 6 4.3 15:38:22 10° S 15:43:35 67° WSW 15:48:42 10° NNW
ASTRO E2 4.3 15:42:44 10° WNW 15:44:47 23° NW 15:44:47 23° NW
Cosmos 1315 Rocket 4.2 15:42:59 10° NNW 15:46:41 38° WSW 15:50:29 10° S
Cosmos 1066 4.5 15:41:53 10° N 15:47:20 77° E 15:52:54 10° SSE
Cosmos 2360 4.3 15:45:13 10° SSW 15:50:28 57° SE 15:50:28 57° SE
ADEOS Rocket 3.1 15:47:32 10° SSE 15:54:39 87° ENE 16:00:57 10° NNW
Cosmos 2251 Rocket 3.9 15:51:30 10° NNW 15:56:48 63° WSW 16:02:12 10° SSE
Meteor 2-5 Rocket 3.8 15:51:28 10° N 15:57:26 85° W 16:03:24 10° S
Cosmos 1980 Rocket 4.1 15:55:08 10° S 15:56:40 16° SSE 15:56:40 16° SSE
Cosmos 2184 Rocket 4.4 15:55:18 10° NNW 16:01:34 62° W 16:07:59 10° S
Cosmos 2154 Rocket 4.1 15:57:03 10° NNW 16:03:17 75° W 16:09:39 10° S
Cosmos 1610 Rocket 4.4 16:00:36 10° N 16:07:01 89° W 16:13:29 10° S
ISS -0.9 16:05:01 10° WNW 16:06:09 19° W 16:06:09 19° W
Cosmos 1697 Rocket 3.6 16:05:34 10° SSW 16:09:09 38° S 16:09:09 38° S
Meteor 1-24 Rocket 4.3 16:12:09 10° NNW 16:17:56 57° W 16:23:37 10° S
Lacrosse 5 4.3 16:53:17 10° SW 16:54:30 17° SW 16:54:30 17° SW
CENTAUR R/B 4.4 22:40:11 31° ESE 22:40:11 31° ESE 22:43:51 10° SE
Cosmos 1844 Rocket 4.3 23:47:26 25° S 23:47:26 25° S 23:49:43 10° SSE
NOSS 3-2 (A) 4.1 23:46:11 83° WNW 23:46:35 87° WSW 23:54:46 10° SSE
